0 HST 1 20580U 90037B 26069.98675882 .00008846 00000-0 29254-3 0 9991 2 20580 28.4718 31.1498 0001853 138.4359 221.6377 15.29506520773519 0 ISS (ZARYA) 1 25544U 98067A 26069.48132270 .00008982 00000-0 17350-3 0 9996 2 25544 51.6323 68.4424 0007951 177.3713 182.7319 15.48562437556452 0 CXO 1 25867U 99040B 26071.53156319 .00001015 00000-0 00000-0 0 9996 2 25867 54.5614 119.5985 7991212 310.6812 0.3445 0.37798688 16958